,,,PA_Meas_PMT16A,,PR_Meas_QMR101_102,,RH_Meas_QMH101,,SR_Meas_QMS101,,TA_Meas_QMH101,,GenWind,,GenWind,
date,time,status,PA,status,PR,status,RH,status,SR,status,TA,status,DirAvg,status,SpdAvg,
2009-01-23, 00:00:04,VALID,1004.51,VALID,0,VALID,92.6528,VALID,0.100563,VALID,24.2078,VALID,34,VALID,0.299609,
2009-01-23, 00:01:04,VALID,1004.51,VALID,0,VALID,92.6146,VALID,0,VALID,24.1902,VALID,41,VALID,0.372656,
2009-01-23, 00:02:04,VALID,1004.48,VALID,0,VALID,92.6146,VALID,0.100563,VALID,24.1494,VALID,49,VALID,0.400781,
2009-01-23, 00:03:04,VALID,1004.41,VALID,0,VALID,92.6299,VALID,0.100563,VALID,24.13,VALID,49,VALID,0.0648438,
2009-01-23, 00:04:04,VALID,1004.41,VALID,0,VALID,92.6451,VALID,0.100563,VALID,24.091,VALID,49,VALID,0.31875,
2009-01-23, 00:05:04,VALID,1004.39,VALID,0,VALID,92.6756,VALID,0,VALID,24.1123,VALID,49,VALID,0,
2009-01-23, 00:06:04,VALID,1004.4,VALID,0,VALID,92.6985,VALID,0,VALID,24.0521,VALID,61,VALID,0.271875,
2009-01-23, 00:07:04,VALID,1004.38,VALID,0,VALID,92.7214,VALID,0.100563,VALID,24.0114,VALID,61,VALID,0.164453,
2009-01-23, 00:08:04,VALID,1004.37,VALID,0,VALID,92.7901,VALID,0,VALID,24.0132,VALID,61,VALID,0.453516,
2009-01-23, 00:09:04,VALID,1004.38,VALID,0,VALID,92.8282,VALID,0.100563,VALID,23.9937,VALID,61,VALID,0.288281,
2009-01-23, 00:10:04,VALID,1004.4,VALID,0,VALID,92.8587,VALID,0,VALID,23.9955,VALID,61,VALID,0.224609,
2009-01-23, 00:11:04,VALID,1004.35,VALID,0,VALID,92.8816,VALID,0.100563,VALID,23.9742,VALID,61,VALID,0.207813,
2009-01-23, 00:12:04,VALID,1004.39,VALID,0,VALID,92.9121,VALID,0,VALID,23.9548,VALID,61,VALID,0.247656,
2009-01-23, 00:13:04,VALID,1004.36,VALID,0,VALID,92.9961,VALID,0,VALID,23.9353,VALID,61,VALID,0,
2009-01-23, 00:14:04,VALID,1004.36,VALID,0,VALID,93.0342,VALID,0.100563,VALID,23.9353,VALID,62,VALID,0.43125,
2009-01-23, 00:15:04,VALID,1004.4,VALID,0,VALID,93.0647,VALID,0.100563,VALID,23.9371,VALID,62,VALID,0.325,
2009-01-23, 00:16:04,VALID,1004.36,VALID,0,VALID,93.1181,VALID,0.100563,VALID,23.9371,VALID,62,VALID,0.408594,
2009-01-23, 00:17:04,VALID,1004.36,VALID,0,VALID,93.1715,VALID,0,VALID,23.8964,VALID,62,VALID,0.316797,
2009-01-23, 00:18:04,VALID,1004.36,VALID,0,VALID,93.2249,VALID,0.100563,VALID,23.8964,VALID,62,VALID,0.395703,
2009-01-23, 00:19:04,VALID,1004.37,VALID,0,VALID,93.2936,VALID,0,VALID,23.8964,VALID,63,VALID,0.283984,
2009-01-23, 00:20:04,VALID,1004.37,VALID,0,VALID,93.3317,VALID,0.100563,VALID,23.8964,VALID,63,VALID,0.28125,
2009-01-23, 00:21:04,VALID,1004.34,VALID,0,VALID,93.347,VALID,0,VALID,23.8751,VALID,63,VALID,0.278906,
2009-01-23, 00:22:04,VALID,1004.34,VALID,0,VALID,93.3699,VALID,0,VALID,23.8964,VALID,63,VALID,0.244922,
2009-01-23, 00:23:04,VALID,1004.32,VALID,0,VALID,93.3928,VALID,0,VALID,23.9159,VALID,63,VALID,0.433203,
2009-01-23, 00:24:04,VALID,1004.31,VALID,0,VALID,93.4233,VALID,0.100563,VALID,23.9159,VALID,63,VALID,0.384375,
2009-01-23, 00:25:04,VALID,1004.26,VALID,0,VALID,93.4462,VALID,0.100563,VALID,23.8964,VALID,63,VALID,0.435547,
2009-01-23, 00:26:04,VALID,1004.27,VALID,0,VALID,93.4462,VALID,0.100563,VALID,23.9159,VALID,51,VALID,0.54375,
2009-01-23, 00:27:04,VALID,1004.25,VALID,0,VALID,93.4843,VALID,0.100563,VALID,23.8964,VALID,51,VALID,0.433984,
2009-01-23, 00:28:04,VALID,1004.27,VALID,0,VALID,93.4843,VALID,0.100563,VALID,23.8964,VALID,51,VALID,0.334766,
2009-01-23, 00:29:04,VALID,1004.26,VALID,0,VALID,93.4538,VALID,0.100563,VALID,23.8769,VALID,51,VALID,0.357812,
2009-01-23, 00:30:04,VALID,1004.24,VALID,0,VALID,93.5072,VALID,0.100563,VALID,23.8964,VALID,52,VALID,0.424609,
2009-01-23, 00:31:04,VALID,1004.24,VALID,0,VALID,93.5072,VALID,0.100563,VALID,23.8964,VALID,52,VALID,0.166016,
2009-01-23, 00:32:04,VALID,1004.21,VALID,0,VALID,93.553,VALID,0,VALID,23.8964,VALID,63,VALID,0.258984,
2009-01-23, 00:33:04,VALID,1004.19,VALID,0,VALID,93.5758,VALID,0,VALID,23.9159,VALID,63,VALID,0.137109,
2009-01-23, 00:34:04,VALID,1004.19,VALID,0,VALID,93.6369,VALID,0.100563,VALID,23.9353,VALID,61,VALID,0.498047,
2009-01-23, 00:35:04,VALID,1004.16,VALID,0,VALID,93.6216,VALID,0.100563,VALID,23.9353,VALID,61,VALID,0.294531,
2009-01-23, 00:36:04,VALID,1004.17,VALID,0,VALID,93.5377,VALID,0.100563,VALID,23.9159,VALID,61,VALID,0.0195313,
2009-01-23, 00:37:04,VALID,1004.17,VALID,0,VALID,93.4843,VALID,0,VALID,23.9159,VALID,61,VALID,0,
2009-01-23, 00:38:04,VALID,1004.18,VALID,0,VALID,93.5148,VALID,0.100563,VALID,23.8964,VALID,61,VALID,0.328906,
2009-01-23, 00:39:04,VALID,1004.18,VALID,0,VALID,93.5148,VALID,0.100563,VALID,23.9159,VALID,61,VALID,0.203906,
2009-01-23, 00:40:04,VALID,1004.16,VALID,0,VALID,93.5224,VALID,0,VALID,23.9177,VALID,61,VALID,0.0769531,
2009-01-23, 00:41:04,VALID,1004.15,VALID,0,VALID,93.5224,VALID,0,VALID,23.8982,VALID,61,VALID,0,
2009-01-23, 00:42:04,VALID,1004.11,VALID,0,VALID,93.5072,VALID,0,VALID,23.8982,VALID,61,VALID,0,
2009-01-23, 00:43:04,VALID,1004.14,VALID,0,VALID,93.5224,VALID,0,VALID,23.8982,VALID,61,VALID,0,
2009-01-23, 00:44:04,VALID,1004.09,VALID,0,VALID,93.5301,VALID,0,VALID,23.8982,VALID,61,VALID,0,
2009-01-23, 00:45:04,VALID,1004.07,VALID,0,VALID,93.5682,VALID,0,VALID,23.8982,VALID,61,VALID,0,
2009-01-23, 00:46:04,VALID,1004.07,VALID,0,VALID,93.5606,VALID,0,VALID,23.8787,VALID,61,VALID,0,
2009-01-23, 00:47:04,VALID,1004.07,VALID,0,VALID,93.5682,VALID,0,VALID,23.8787,VALID,61,VALID,0,
2009-01-23, 00:48:04,VALID,1004.02,VALID,0,VALID,93.5835,VALID,0,VALID,23.8787,VALID,61,VALID,0,
2009-01-23, 00:49:04,VALID,1004.02,VALID,0,VALID,93.5682,VALID,0,VALID,23.838,VALID,61,VALID,0,
2009-01-23, 00:50:04,VALID,1004,VALID,0,VALID,93.5911,VALID,0,VALID,23.8398,VALID,61,VALID,0,
2009-01-23, 00:51:04,VALID,1004.01,VALID,0,VALID,93.6292,VALID,0,VALID,23.8203,VALID,61,VALID,0,
2009-01-23, 00:52:04,VALID,1003.98,VALID,0,VALID,93.6292,VALID,0,VALID,23.8203,VALID,61,VALID,0,
2009-01-23, 00:53:04,VALID,1003.94,VALID,0,VALID,93.6979,VALID,0,VALID,23.8203,VALID,61,VALID,0,
2009-01-23, 00:54:04,VALID,1003.94,VALID,0,VALID,93.7284,VALID,0,VALID,23.8009,VALID,61,VALID,0,
2009-01-23, 00:55:04,VALID,1003.92,VALID,0,VALID,93.7513,VALID,0.100563,VALID,23.7991,VALID,61,VALID,0,
2009-01-23, 00:56:04,VALID,1003.92,VALID,0,VALID,93.7895,VALID,0,VALID,23.7991,VALID,61,VALID,0,
2009-01-23, 00:57:04,VALID,1003.91,VALID,0,VALID,93.8276,VALID,0.100563,VALID,23.8185,VALID,61,VALID,0,
2009-01-23, 00:58:04,VALID,1003.92,VALID,0,VALID,93.8276,VALID,0.100563,VALID,23.8185,VALID,61,VALID,0,
2009-01-23, 00:59:04,VALID,1003.9,VALID,0,VALID,93.82,VALID,0.100563,VALID,23.7991,VALID,61,VALID,0,
2009-01-23, 01:00:04,VALID,1003.86,VALID,0,VALID,93.8276,VALID,0.100563,VALID,23.7991,VALID,61,VALID,0,
2009-01-23, 01:01:04,VALID,1003.84,VALID,0,VALID,93.8657,VALID,0,VALID,23.7796,VALID,61,VALID,0,
2009-01-23, 01:02:04,VALID,1003.82,VALID,0,VALID,93.9039,VALID,0,VALID,23.7991,VALID,61,VALID,0,
2009-01-23, 01:03:04,VALID,1003.79,VALID,0,VALID,93.9191,VALID,0.100563,VALID,23.8185,VALID,61,VALID,0,
2009-01-23, 01:04:04,VALID,1003.76,VALID,0,VALID,93.8734,VALID,0.100563,VALID,23.7991,VALID,61,VALID,0,
2009-01-23, 01:05:04,VALID,1003.76,VALID,0,VALID,93.7895,VALID,0.100563,VALID,23.7601,VALID,61,VALID,0.0679687,
2009-01-23, 01:06:04,VALID,1003.72,VALID,0,VALID,93.7895,VALID,0.100563,VALID,23.7601,VALID,61,VALID,0.314453,
2009-01-23, 01:07:04,VALID,1003.74,VALID,0,VALID,93.7971,VALID,0.100563,VALID,23.7407,VALID,61,VALID,0.301172,
2009-01-23, 01:08:04,VALID,1003.74,VALID,0,VALID,93.7589,VALID,0,VALID,23.7425,VALID,61,VALID,0.298438,
2009-01-23, 01:09:04,VALID,1003.72,VALID,0,VALID,93.7818,VALID,0,VALID,23.7017,VALID,61,VALID,0.303516,
2009-01-23, 01:10:04,VALID,1003.74,VALID,0,VALID,93.8123,VALID,0.100563,VALID,23.6823,VALID,61,VALID,0.284766,
2009-01-23, 01:11:04,VALID,1003.74,VALID,0,VALID,93.8352,VALID,0,VALID,23.6628,VALID,61,VALID,0.224609,
2009-01-23, 01:12:04,VALID,1003.74,VALID,0,VALID,93.9039,VALID,0.100563,VALID,23.6628,VALID,61,VALID,0.281641,
2009-01-23, 01:13:04,VALID,1003.71,VALID,0,VALID,93.9649,VALID,0.100563,VALID,23.6823,VALID,61,VALID,0.214844,
2009-01-23, 01:14:04,VALID,1003.71,VALID,0,VALID,93.9954,VALID,0,VALID,23.7035,VALID,61,VALID,0.166406,
2009-01-23, 01:15:04,VALID,1003.67,VALID,0,VALID,94.0565,VALID,0,VALID,23.7017,VALID,61,VALID,0.245703,
2009-01-23, 01:16:04,VALID,1003.61,VALID,0,VALID,94.0794,VALID,0.100563,VALID,23.7425,VALID,61,VALID,0.289063,
2009-01-23, 01:17:04,VALID,1003.61,VALID,0,VALID,94.1404,VALID,0,VALID,23.7407,VALID,61,VALID,0.397656,
2009-01-23, 01:18:04,VALID,1003.6,VALID,0,VALID,94.1328,VALID,0.100563,VALID,23.7814,VALID,61,VALID,0.403516,
2009-01-23, 01:19:04,VALID,1003.59,VALID,0,VALID,94.1556,VALID,0.100563,VALID,23.7601,VALID,60,VALID,0.480859,
2009-01-23, 01:20:04,VALID,1003.59,VALID,0,VALID,94.1099,VALID,0.100563,VALID,23.7814,VALID,60,VALID,0.385547,
2009-01-23, 01:21:04,VALID,1003.57,VALID,0,VALID,94.0794,VALID,0.100563,VALID,23.7796,VALID,49,VALID,0.524609,
2009-01-23, 01:22:04,VALID,1003.57,VALID,0,VALID,94.1175,VALID,0.100563,VALID,23.7796,VALID,49,VALID,0.609375,
2009-01-23, 01:23:04,VALID,1003.57,VALID,0,VALID,94.1785,VALID,0.100563,VALID,23.7991,VALID,49,VALID,0.5375,
2009-01-23, 01:24:04,VALID,1003.55,VALID,0,VALID,94.1785,VALID,0.100563,VALID,23.838,VALID,49,VALID,0.476172,
2009-01-23, 01:25:04,VALID,1003.53,VALID,0,VALID,94.1328,VALID,0,VALID,23.8611,VALID,49,VALID,0.44375,
2009-01-23, 01:26:04,VALID,1003.53,VALID,0,VALID,94.0031,VALID,0,VALID,23.8203,VALID,49,VALID,0.333203,
2009-01-23, 01:27:04,VALID,1003.5,VALID,0,VALID,93.881,VALID,0,VALID,23.8009,VALID,49,VALID,0.387109,
2009-01-23, 01:28:04,VALID,1003.51,VALID,0,VALID,93.8429,VALID,0,VALID,23.7407,VALID,49,VALID,0.433984,
2009-01-23, 01:29:04,VALID,1003.49,VALID,0,VALID,93.82,VALID,0,VALID,23.7212,VALID,49,VALID,0.388672,
2009-01-23, 01:30:04,VALID,1003.47,VALID,0,VALID,93.7971,VALID,0,VALID,23.723,VALID,49,VALID,0.378906,
2009-01-23, 01:31:04,VALID,1003.48,VALID,0,VALID,93.8352,VALID,0,VALID,23.6841,VALID,49,VALID,0.383203,
2009-01-23, 01:32:04,VALID,1003.46,VALID,0,VALID,93.9573,VALID,0,VALID,23.6841,VALID,49,VALID,0.315234,
2009-01-23, 01:33:04,VALID,1003.45,VALID,0,VALID,93.9802,VALID,0,VALID,23.7035,VALID,49,VALID,0.372266,
2009-01-23, 01:34:04,VALID,1003.45,VALID,0,VALID,94.0412,VALID,0,VALID,23.723,VALID,49,VALID,0.343359,
2009-01-23, 01:35:04,VALID,1003.45,VALID,0,VALID,94.087,VALID,0.100563,VALID,23.7212,VALID,49,VALID,0.382031,
2009-01-23, 01:36:04,VALID,1003.43,VALID,0,VALID,94.0946,VALID,0.100563,VALID,23.7425,VALID,49,VALID,0.457812,
2009-01-23, 01:37:04,VALID,1003.43,VALID,0,VALID,94.1022,VALID,0.100563,VALID,23.7425,VALID,49,VALID,0.260156,
2009-01-23, 01:38:04,VALID,1003.43,VALID,0,VALID,94.1175,VALID,0.100563,VALID,23.7407,VALID,49,VALID,0.240625,
2009-01-23, 01:39:04,VALID,1003.41,VALID,0,VALID,94.2014,VALID,0.100563,VALID,23.7601,VALID,49,VALID,0,
2009-01-23, 01:40:04,VALID,1003.39,VALID,0,VALID,94.1862,VALID,0.100563,VALID,23.7796,VALID,49,VALID,0,
2009-01-23, 01:41:04,VALID,1003.34,VALID,0,VALID,94.1785,VALID,0.100563,VALID,23.7991,VALID,49,VALID,0,
2009-01-23, 01:42:04,VALID,1003.34,VALID,0,VALID,94.2319,VALID,0.100563,VALID,23.7991,VALID,49,VALID,0,
2009-01-23, 01:43:04,VALID,1003.34,VALID,0,VALID,94.1328,VALID,0.100563,VALID,23.8185,VALID,49,VALID,0,
2009-01-23, 01:44:04,VALID,1003.31,VALID,0,VALID,93.9344,VALID,0.100563,VALID,23.7194,VALID,49,VALID,0,
2009-01-23, 01:45:04,VALID,1003.27,VALID,0,VALID,93.9573,VALID,0.100563,VALID,23.7017,VALID,49,VALID,0,
2009-01-23, 01:46:04,VALID,1003.27,VALID,0,VALID,93.9497,VALID,0.100563,VALID,23.7017,VALID,49,VALID,0,
2009-01-23, 01:47:04,VALID,1003.26,VALID,0,VALID,94.0259,VALID,0,VALID,23.7017,VALID,49,VALID,0,
2009-01-23, 01:48:04,VALID,1003.28,VALID,0,VALID,93.9268,VALID,0.100563,VALID,23.7035,VALID,49,VALID,0,
2009-01-23, 01:49:04,VALID,1003.27,VALID,0,VALID,93.8581,VALID,0.100563,VALID,23.6221,VALID,49,VALID,0,
2009-01-23, 01:50:04,VALID,1003.25,VALID,0,VALID,93.8734,VALID,0.100563,VALID,23.6239,VALID,49,VALID,0,
2009-01-23, 01:51:04,VALID,1003.24,VALID,0,VALID,93.9344,VALID,0.100563,VALID,23.6239,VALID,49,VALID,0,
2009-01-23, 01:52:04,VALID,1003.26,VALID,0,VALID,93.9573,VALID,0.100563,VALID,23.6044,VALID,49,VALID,0,
2009-01-23, 01:53:04,VALID,1003.21,VALID,0,VALID,93.9649,VALID,0.100563,VALID,23.585,VALID,49,VALID,0,
2009-01-23, 01:54:04,VALID,1003.21,VALID,0,VALID,94.0107,VALID,0.100563,VALID,23.6062,VALID,49,VALID,0,
2009-01-23, 01:55:04,VALID,1003.19,VALID,0,VALID,94.0488,VALID,0,VALID,23.5868,VALID,49,VALID,0,
2009-01-23, 01:56:04,VALID,1003.15,VALID,0,VALID,94.087,VALID,0,VALID,23.5885,VALID,49,VALID,0,
2009-01-23, 01:57:04,VALID,1003.15,VALID,0,VALID,94.0946,VALID,0,VALID,23.5673,VALID,49,VALID,0,
2009-01-23, 01:58:04,VALID,1003.15,VALID,0,VALID,94.0412,VALID,0,VALID,23.5284,VALID,49,VALID,0,
2009-01-23, 01:59:04,VALID,1003.16,VALID,0,VALID,94.087,VALID,0,VALID,23.4894,VALID,49,VALID,0,
2009-01-23, 02:00:04,VALID,1003.19,VALID,0,VALID,94.1099,VALID,0,VALID,23.4894,VALID,49,VALID,0,
2009-01-23, 02:01:04,VALID,1003.18,VALID,0,VALID,94.1556,VALID,0,VALID,23.4894,VALID,49,VALID,0,
2009-01-23, 02:02:04,VALID,1003.18,VALID,0,VALID,94.2701,VALID,0,VALID,23.4894,VALID,49,VALID,0,
2009-01-23, 02:03:04,VALID,1003.15,VALID,0,VALID,94.3311,VALID,0,VALID,23.5089,VALID,49,VALID,0,
2009-01-23, 02:04:04,VALID,1003.13,VALID,0,VALID,94.2853,VALID,0,VALID,23.5089,VALID,49,VALID,0,
2009-01-23, 02:05:04,VALID,1003.12,VALID,0,VALID,94.293,VALID,0,VALID,23.4894,VALID,49,VALID,0,
2009-01-23, 02:06:04,VALID,1003.11,VALID,0,VALID,94.3692,VALID,0,VALID,23.5107,VALID,49,VALID,0,
2009-01-23, 02:07:04,VALID,1003.11,VALID,0,VALID,94.3845,VALID,0,VALID,23.5284,VALID,49,VALID,0,
2009-01-23, 02:08:04,VALID,1003.1,VALID,0,VALID,94.3616,VALID,0,VALID,23.5089,VALID,49,VALID,0,
2009-01-23, 02:09:04,VALID,1003.09,VALID,0,VALID,94.3387,VALID,0,VALID,23.5089,VALID,49,VALID,0,
2009-01-23, 02:10:04,VALID,1003.07,VALID,0,VALID,94.2701,VALID,0,VALID,23.4505,VALID,49,VALID,0,
2009-01-23, 02:11:04,VALID,1003.07,VALID,0,VALID,94.3235,VALID,0,VALID,23.4505,VALID,49,VALID,0,
2009-01-23, 02:12:04,VALID,1003.06,VALID,0,VALID,94.3998,VALID,0,VALID,23.4487,VALID,49,VALID,0,
2009-01-23, 02:13:04,VALID,1003.08,VALID,0,VALID,94.4608,VALID,0,VALID,23.4894,VALID,49,VALID,0,
2009-01-23, 02:14:04,VALID,1003.1,VALID,0,VALID,94.4684,VALID,0,VALID,23.5089,VALID,49,VALID,0,
2009-01-23, 02:15:04,VALID,1003.08,VALID,0,VALID,94.4455,VALID,0.100563,VALID,23.4877,VALID,49,VALID,0,
2009-01-23, 02:16:04,VALID,1003.08,VALID,0,VALID,94.3845,VALID,0,VALID,23.4487,VALID,49,VALID,0,
2009-01-23, 02:17:04,VALID,1003.08,VALID,0,VALID,94.354,VALID,0,VALID,23.4505,VALID,49,VALID,0,
2009-01-23, 02:18:04,VALID,1003.09,VALID,0,VALID,94.3692,VALID,0,VALID,23.4505,VALID,49,VALID,0,
2009-01-23, 02:19:04,VALID,1003.07,VALID,0,VALID,94.3921,VALID,0,VALID,23.4311,VALID,49,VALID,0,
2009-01-23, 02:20:04,VALID,1003.08,VALID,0,VALID,94.4455,VALID,0,VALID,23.4505,VALID,49,VALID,0,
2009-01-23, 02:21:04,VALID,1003.09,VALID,0,VALID,94.5066,VALID,0,VALID,23.4505,VALID,49,VALID,0,
2009-01-23, 02:22:04,VALID,1003.08,VALID,0,VALID,94.5752,VALID,0,VALID,23.4894,VALID,49,VALID,0,
2009-01-23, 02:23:04,VALID,1003.1,VALID,0,VALID,94.5371,VALID,0,VALID,23.47,VALID,49,VALID,0,
2009-01-23, 02:24:04,VALID,1003.09,VALID,0,VALID,94.5523,VALID,0,VALID,23.4912,VALID,49,VALID,0,
2009-01-23, 02:25:04,VALID,1003.09,VALID,0,VALID,94.5523,VALID,0,VALID,23.47,VALID,49,VALID,0,
2009-01-23, 02:26:04,VALID,1003.07,VALID,0,VALID,94.5523,VALID,0,VALID,23.47,VALID,49,VALID,0,
2009-01-23, 02:27:04,VALID,1003.07,VALID,0,VALID,94.5371,VALID,0,VALID,23.4912,VALID,49,VALID,0,
2009-01-23, 02:28:04,VALID,1003.07,VALID,0,VALID,94.5676,VALID,0,VALID,23.4311,VALID,49,VALID,0,
2009-01-23, 02:29:04,VALID,1003.04,VALID,0,VALID,94.56,VALID,0,VALID,23.4311,VALID,49,VALID,0,
2009-01-23, 02:30:04,VALID,1003.07,VALID,0,VALID,94.4684,VALID,0,VALID,23.4116,VALID,49,VALID,0,
2009-01-23, 02:31:04,VALID,1003.06,VALID,0,VALID,94.4913,VALID,0,VALID,23.3921,VALID,49,VALID,0,
2009-01-23, 02:32:04,VALID,1003.08,VALID,0,VALID,94.5752,VALID,0,VALID,23.3921,VALID,49,VALID,0,
2009-01-23, 02:33:04,VALID,1003.09,VALID,0,VALID,94.5523,VALID,0,VALID,23.3727,VALID,49,VALID,0,
2009-01-23, 02:34:04,VALID,1003.11,VALID,0,VALID,94.5676,VALID,0,VALID,23.3709,VALID,49,VALID,0,
2009-01-23, 02:35:04,VALID,1003.14,VALID,0,VALID,94.5752,VALID,0,VALID,23.3921,VALID,49,VALID,0,
2009-01-23, 02:36:04,VALID,1003.12,VALID,0,VALID,94.6057,VALID,0,VALID,23.3921,VALID,49,VALID,0,
2009-01-23, 02:37:04,VALID,1003.13,VALID,0,VALID,94.682,VALID,0,VALID,23.4487,VALID,49,VALID,0,
2009-01-23, 02:38:04,VALID,1003.11,VALID,0,VALID,94.7278,VALID,0,VALID,23.4682,VALID,49,VALID,0,
2009-01-23, 02:39:04,VALID,1003.09,VALID,0,VALID,94.7354,VALID,0,VALID,23.5284,VALID,49,VALID,0,
2009-01-23, 02:40:04,VALID,1003.07,VALID,0,VALID,94.7125,VALID,0,VALID,23.5478,VALID,59,VALID,0.191016,
2009-01-23, 02:41:04,VALID,1003.09,VALID,0,VALID,94.766,VALID,0,VALID,23.5868,VALID,61,VALID,0.430859,
2009-01-23, 02:42:04,VALID,1003.07,VALID,0,VALID,94.7507,VALID,0,VALID,23.6062,VALID,61,VALID,0.380859,
2009-01-23, 02:43:04,VALID,1003.08,VALID,0,VALID,94.7507,VALID,0,VALID,23.6062,VALID,61,VALID,0.424219,
2009-01-23, 02:44:04,VALID,1003.1,VALID,0,VALID,94.7049,VALID,0,VALID,23.6257,VALID,53,VALID,0.445703,
2009-01-23, 02:45:04,VALID,1003.08,VALID,0,VALID,94.6744,VALID,0,VALID,23.6062,VALID,50,VALID,0.469922,
2009-01-23, 02:46:04,VALID,1003.07,VALID,0,VALID,94.6668,VALID,0,VALID,23.6062,VALID,50,VALID,0.350781,
2009-01-23, 02:47:04,VALID,1003.05,VALID,0,VALID,94.6591,VALID,0,VALID,23.5868,VALID,50,VALID,0.382813,
2009-01-23, 02:48:04,VALID,1003.02,VALID,0,VALID,94.6591,VALID,0,VALID,23.5868,VALID,50,VALID,0.332422,
2009-01-23, 02:49:04,VALID,1003.02,VALID,0,VALID,94.7125,VALID,0,VALID,23.6257,VALID,24,VALID,0.425391,
2009-01-23, 02:50:04,VALID,1003.01,VALID,0,VALID,94.7583,VALID,0,VALID,23.6452,VALID,24,VALID,0.434375,
2009-01-23, 02:51:04,VALID,1002.99,VALID,0,VALID,94.7049,VALID,0,VALID,23.6646,VALID,24,VALID,0.292969,
2009-01-23, 02:52:04,VALID,1002.99,VALID,0,VALID,94.7125,VALID,0,VALID,23.6434,VALID,24,VALID,0.258203,
2009-01-23, 02:53:04,VALID,1003.02,VALID,0,VALID,94.6744,VALID,0,VALID,23.6646,VALID,27,VALID,0.349219,
2009-01-23, 02:54:04,VALID,1002.98,VALID,0,VALID,94.6973,VALID,0,VALID,23.6841,VALID,27,VALID,0.416406,
2009-01-23, 02:55:04,VALID,1003,VALID,0,VALID,94.682,VALID,0,VALID,23.6841,VALID,27,VALID,0.389453,
2009-01-23, 02:56:04,VALID,1003,VALID,0,VALID,94.6897,VALID,0,VALID,23.6841,VALID,27,VALID,0.332812,
2009-01-23, 02:57:04,VALID,1003.01,VALID,0,VALID,94.6668,VALID,0,VALID,23.6841,VALID,27,VALID,0.172266,
2009-01-23, 02:58:04,VALID,1003.01,VALID,0,VALID,94.6591,VALID,0,VALID,23.6823,VALID,27,VALID,0.228516,
2009-01-23, 02:59:04,VALID,1003.03,VALID,0,VALID,94.6363,VALID,0,VALID,23.6823,VALID,27,VALID,0.0414063,
2009-01-23, 03:00:04,VALID,1003.02,VALID,0,VALID,94.621,VALID,0,VALID,23.6628,VALID,27,VALID,0.00117188,
2009-01-23, 03:01:04,VALID,1003.03,VALID,0,VALID,94.56,VALID,0,VALID,23.6646,VALID,27,VALID,0,
2009-01-23, 03:02:04,VALID,1003.01,VALID,0,VALID,94.5523,VALID,0,VALID,23.6452,VALID,27,VALID,0.0484375,
2009-01-23, 03:03:04,VALID,1003.01,VALID,0,VALID,94.5447,VALID,0,VALID,23.6452,VALID,27,VALID,0.241406,
2009-01-23, 03:04:04,VALID,1003,VALID,0,VALID,94.5295,VALID,0,VALID,23.6257,VALID,27,VALID,0.389062,
2009-01-23, 03:05:04,VALID,1002.99,VALID,0,VALID,94.5142,VALID,0,VALID,23.6257,VALID,27,VALID,0.117578,
2009-01-23, 03:06:04,VALID,1003,VALID,0,VALID,94.5142,VALID,0,VALID,23.6062,VALID,27,VALID,0.0882813,
2009-01-23, 03:07:04,VALID,1002.99,VALID,0,VALID,94.5752,VALID,0,VALID,23.6062,VALID,39,VALID,0.251172,
2009-01-23, 03:08:04,VALID,1002.99,VALID,0,VALID,94.621,VALID,0.100563,VALID,23.6044,VALID,39,VALID,0.3,
2009-01-23, 03:09:04,VALID,1002.99,VALID,0,VALID,94.6515,VALID,0,VALID,23.6452,VALID,39,VALID,0.192188,
2009-01-23, 03:10:04,VALID,1002.98,VALID,0,VALID,94.6286,VALID,0,VALID,23.6452,VALID,39,VALID,0.417188,
2009-01-23, 03:11:04,VALID,1003,VALID,0,VALID,94.6668,VALID,0,VALID,23.6841,VALID,40,VALID,0.322266,
2009-01-23, 03:12:04,VALID,1002.98,VALID,0,VALID,94.6591,VALID,0,VALID,23.7035,VALID,40,VALID,0,
2009-01-23, 03:13:04,VALID,1002.98,VALID,0,VALID,94.6897,VALID,0,VALID,23.723,VALID,40,VALID,0,
2009-01-23, 03:14:04,VALID,1002.99,VALID,0,VALID,94.6897,VALID,0,VALID,23.7212,VALID,40,VALID,0,
2009-01-23, 03:15:04,VALID,1002.99,VALID,0,VALID,94.6286,VALID,0,VALID,23.7832,VALID,40,VALID,0,
2009-01-23, 03:16:04,VALID,1003.01,VALID,0,VALID,94.6134,VALID,0,VALID,23.7425,VALID,40,VALID,0,
2009-01-23, 03:17:04,VALID,1003,VALID,0,VALID,94.6057,VALID,0,VALID,23.7425,VALID,40,VALID,0,
2009-01-23, 03:18:04,VALID,1002.99,VALID,0,VALID,94.5447,VALID,0,VALID,23.7017,VALID,40,VALID,0,
2009-01-23, 03:19:04,VALID,1002.99,VALID,0,VALID,94.5905,VALID,0,VALID,23.7212,VALID,40,VALID,0,
2009-01-23, 03:20:04,VALID,1002.97,VALID,0,VALID,94.5752,VALID,0,VALID,23.7619,VALID,40,VALID,0,
2009-01-23, 03:21:04,VALID,1002.94,VALID,0,VALID,94.4684,VALID,0,VALID,23.7017,VALID,40,VALID,0,
2009-01-23, 03:22:04,VALID,1002.93,VALID,0,VALID,94.3769,VALID,0,VALID,23.6628,VALID,40,VALID,0,
2009-01-23, 03:23:04,VALID,1002.93,VALID,0,VALID,94.3158,VALID,0,VALID,23.6239,VALID,40,VALID,0,
2009-01-23, 03:24:04,VALID,1002.96,VALID,0,VALID,94.293,VALID,0,VALID,23.6062,VALID,40,VALID,0,
2009-01-23, 03:25:04,VALID,1002.95,VALID,0,VALID,94.293,VALID,0,VALID,23.5673,VALID,40,VALID,0,
2009-01-23, 03:26:04,VALID,1002.95,VALID,0,VALID,94.3998,VALID,0,VALID,23.5868,VALID,40,VALID,0,
2009-01-23, 03:27:04,VALID,1002.95,VALID,0,VALID,94.415,VALID,0,VALID,23.608,VALID,40,VALID,0,
2009-01-23, 03:28:04,VALID,1002.94,VALID,0,VALID,94.3845,VALID,0,VALID,23.5868,VALID,40,VALID,0,
2009-01-23, 03:29:04,VALID,1002.95,VALID,0,VALID,94.3616,VALID,0,VALID,23.5673,VALID,40,VALID,0,
2009-01-23, 03:30:04,VALID,1002.98,VALID,0,VALID,94.3158,VALID,0,VALID,23.5284,VALID,40,VALID,0,
2009-01-23, 03:31:04,VALID,1003,VALID,0,VALID,94.3845,VALID,0,VALID,23.5478,VALID,40,VALID,0,
2009-01-23, 03:32:04,VALID,1002.99,VALID,0,VALID,94.3158,VALID,0,VALID,23.5302,VALID,36,VALID,0,
2009-01-23, 03:33:04,VALID,1003,VALID,0,VALID,94.2853,VALID,0,VALID,23.47,VALID,35,VALID,0,
2009-01-23, 03:34:04,VALID,1003.02,VALID,0,VALID,94.2853,VALID,0,VALID,23.4505,VALID,35,VALID,0,
2009-01-23, 03:35:04,VALID,1003.02,VALID,0,VALID,94.3158,VALID,0,VALID,23.4311,VALID,35,VALID,0,
2009-01-23, 03:36:04,VALID,1003.02,VALID,0,VALID,94.3311,VALID,0,VALID,23.4328,VALID,35,VALID,0,
2009-01-23, 03:37:04,VALID,1003.02,VALID,0,VALID,94.6134,VALID,0,VALID,23.4894,VALID,31,VALID,0.15625,
2009-01-23, 03:38:04,VALID,1003.02,VALID,0,VALID,94.682,VALID,0,VALID,23.5673,VALID,36,VALID,0.198437,
2009-01-23, 03:39:04,VALID,1003.03,VALID,0,VALID,94.5371,VALID,0,VALID,23.5868,VALID,36,VALID,0.0203125,
2009-01-23, 03:40:04,VALID,1003,VALID,0,VALID,94.4837,VALID,0,VALID,23.5691,VALID,36,VALID,0.154687,
2009-01-23, 03:41:04,VALID,1003.02,VALID,0,VALID,94.5066,VALID,0,VALID,23.5868,VALID,36,VALID,0.220313,
2009-01-23, 03:42:04,VALID,1003,VALID,0,VALID,94.5523,VALID,0,VALID,23.6257,VALID,44,VALID,0.282813,
2009-01-23, 03:43:04,VALID,1003.03,VALID,0,VALID,94.4532,VALID,0,VALID,23.6062,VALID,44,VALID,0.178906,
2009-01-23, 03:44:04,VALID,1003.02,VALID,0,VALID,94.4379,VALID,0,VALID,23.6469,VALID,56,VALID,0.314063,
2009-01-23, 03:45:04,VALID,1003.04,VALID,0,VALID,94.4532,VALID,0,VALID,23.6257,VALID,55,VALID,0.444922,
2009-01-23, 03:46:04,VALID,1003.04,VALID,0,VALID,94.3845,VALID,0,VALID,23.6275,VALID,49,VALID,0.258594,
2009-01-23, 03:47:04,VALID,1003.02,VALID,0,VALID,94.293,VALID,0,VALID,23.5478,VALID,42,VALID,0.5875,
2009-01-23, 03:48:04,VALID,1003.02,VALID,0,VALID,94.354,VALID,0,VALID,23.5673,VALID,37,VALID,0.589453,
2009-01-23, 03:49:04,VALID,1003.03,VALID,0,VALID,94.4379,VALID,0,VALID,23.6062,VALID,29,VALID,0.575391,